Regional Weather Roundup
Issued by NWS

Home | Current Version | Previous Version | Text Only | Print | Product List | Glossary Off
Versions: 1 2 3 4 5 6 7 8 9 10 11 12 13 14 15 16 17 18 19 20 21 22 23 24 25 26 27 28 29 30 31 32 33 34 35 36 37 38 39 40 41 42 43 44 45 46 47 48 49 50

000
ASUS43 KLMK 300402
RWRKY
KENTUCKY REGIONAL WEATHER ROUNDUP
NATIONAL WEATHER SERVICE LOUISVILLE KY
1200 AM EDT MON MAY 30 2016

NOTE "FAIR" INDICATES FEW OR NO CLOUDS BELOW 12,000 FEET
WITH NO SIGNIFICANT WEATHER AND/OR OBSTRUCTIONS TO VISIBILITY.

KYZ001>023-026-027-061>063-070>075-300500-
WESTERN AND SOUTH CENTRAL KENTUCKY

CITY           SKY/WX    TMP DP  RH WIND       PRES   REMARKS
PADUCAH        PTCLDY    66  63  90 CALM      30.04F
HENDERSON      PTCLDY    70  63  78 CALM      30.03S
OWENSBORO      MOCLDY    72  67  84 CALM      30.05R
HOPKINSVILLE   NOT AVBL
BOWLING GREEN  CLOUDY    73  62  68 CALM      30.05R
GLASGOW        NOT AVBL
$$

KYZ024-025-028>034-038-045-046-053-300500-
NORTH CENTRAL KENTUCKY

CITY           SKY/WX    TMP DP  RH WIND       PRES   REMARKS
LOUISVILLE/SDF PTCLDY    73  59  61 NW3       30.02S
LOUISVILLE/LOU CLEAR     75  61  61 W6        30.03S
FORT KNOX      CLEAR     65  62  89 NW1       30.03S
$$

KYZ035>037-039>044-047>052-055>060-089>105-300500-
NORTHEAST KENTUCKY

CITY           SKY/WX    TMP DP  RH WIND       PRES   REMARKS
LEXINGTON      CLEAR     72  65  78 CALM      30.04S
COVINGTON      PTCLDY    66  65  96 SW3       30.02S
FRANKFORT      CLEAR     71  64  78 W3        30.02S
$$

KYZ054-064>069-076>088-106>120-300500-
SOUTHEAST KENTUCKY

CITY           SKY/WX    TMP DP  RH WIND       PRES   REMARKS
JACKSON        CLEAR     71  63  75 S3        30.06F
LONDON         CLEAR     70  63  78 CALM      30.06F
SOMERSET       NOT AVBL
MIDDLESBORO    CLEAR     63  62  99 CALM      30.09F
MONTICELLO     CLEAR     69  67  93 W5        30.07F
$$




USA.gov is the U.S. government's official web portal to all federal, state and local government web resources and services.